This demonstration page uses our WeatherBlox Daily Observations layout. Learn more.

Hourly Observations for December 22, 2016

Temp ( °F °C ) Dew Point ( °F °C ) Humidity (%) Winds ( mph kmh ) Pressure ( in mb ) Visibility ( mi km ) Precip ( " mm )
12:54 am 00:54 Clear 28 -2.2 22 -5.6 78 78 Calm 30.4 1030 10 16.0934 0 0
1:54 am 01:54 Clear 28 -2.2 22 -5.6 78 78 WNW 6 9 30.42 1030 10 16.0934 0 0
2:54 am 02:54 Clear 26 -3.3 21 -6.1 81 81 WNW 6 9 30.44 1031 10 16.0934 0 0
3:54 am 03:54 Clear 23 -5 19 -7.2 85 85 W 3 6 30.44 1031 10 16.0934 0 0
4:54 am 04:54 Clear 23 -5 18 -7.8 81 81 WSW 5 7 30.46 1031 10 16.0934 0 0
5:54 am 05:54 Clear 23 -5 18 -7.8 81 81 NNW 5 7 30.45 1031 10 16.0934 0 0
6:54 am 06:54 Clear 19 -7.2 15 -9.4 84 84 SW 5 7 30.48 1032 10 16.0934 0 0
7:54 am 07:54 Sunny 18 -7.8 15 -9.4 88 88 NW 3 6 30.49 1033 10 16.0934 0 0
8:54 am 08:54 Sunny 22 -5.6 18 -7.8 85 85 S 5 7 30.48 1032 10 16.0934 0 0
9:54 am 09:54 Sunny 26 -3.3 21 -6.1 81 81 S 3 6 30.48 1032 10 16.0934 0 0
10:54 am 10:54 Sunny 30 -1.1 23 -5 75 75 SW 5 7 30.48 1032 10 16.0934 0 0
11:54 am 11:54 Sunny 37 2.8 25 -3.9 62 62 SW 5 7 30.45 1031 10 16.0934 0 0
12:54 pm 12:54 Sunny 42 5.6 25 -3.9 51 51 S 5 7 30.41 1030 10 16.0934 0 0
1:54 pm 13:54 Sunny 46 7.8 23 -5 40 40 S 5 7 30.37 1028 10 16.0934 0 0
2:54 pm 14:54 Sunny 47 8.3 22 -5.6 37 37 SSW 9 15 30.35 1028 10 16.0934 0 0
3:54 pm 15:54 Sunny 45 7.2 22 -5.6 40 40 SSW 12 19 30.36 1028 10 16.0934 0 0
4:54 pm 16:54 Sunny 41 5 24 -4.4 51 51 SSW 8 13 30.36 1028 10 16.0934 0 0
5:54 pm 17:54 Clear 34 1.1 24 -4.4 67 67 S 7 11 30.35 1028 10 16.0934 0 0
6:54 pm 18:54 Clear 35 1.7 24 -4.4 64 64 S 6 9 30.35 1028 10 16.0934 0 0
7:54 pm 19:54 Clear 36 2.2 24 -4.4 62 62 S 5 7 30.33 1027 10 16.0934 0 0
8:54 pm 20:54 Mostly Clear 37 2.8 24 -4.4 59 59 S 9 15 30.3 1026 10 16.0934 0 0
9:54 pm 21:54 Cloudy 37 2.8 24 -4.4 59 59 S 6 9 30.27 1025 10 16.0934 0 0
10:54 pm 22:54 Cloudy 37 2.8 25 -3.9 62 62 S 7 11 30.23 1024 10 16.0934 0 0
11:54 pm 23:54 Cloudy 38 3.3 26 -3.3 62 62 S 8 13 30.23 1024 10 16.0934 0 0

Powered by AerisWeather